星链-5779 (STARLINK-5779 )

导读 | 星芒AI

STARLINK-5779 是 SpaceX Starlink 项目中的一颗低轨通信卫星,属于第二代 Starlink 卫星星座的一部分。该卫星于2023年发射,旨在为全球用户提供高速、低延迟的互联网服务。它运行在约550公里高的近地轨道,配备先进通信设备,支持宽带数据传输。Starlink 项目致力于改善偏远地区的网络接入,推动全球互联网覆盖。STARLINK-5779 的部署有助于提升星座整体性能和可靠性。

基本信息
目录编号:
56028
目录名称:
STARLINK-5779
国际标识:
2023-042AU
轨道中心:
EARTH
卫星名称:
星链-5779
卫星全名:
星链-5779 (STARLINK-5779 )
卫星状态:
在轨 (已飞行956 天)
发射日期:
2023-03-24 UTC
国别 :
美国 (US)
星等 :
--
轨道信息
数据来源 国际轨道数据
星历时间: 2025-11-04T04:36:49+0800
15小时前
查看轨道信息
半长轴: 6937.22km
偏心率: 0.0001189
轨道倾角: 43.005°
近地点辐角 270.502°
升交点赤经 6.696°
平近点角 89.569°
近地点: 558.26km
远地点: 559.91km
周期: 95.838分钟
每日圈数: 15.02535
详细信息
固有亮度:
5
最大亮度:
2.5
卫星平台:
Starlink v1.5
覆盖范围:
全球
运营商:
太空探索技术公司
运营商所在国:
美国
制造商(研发单位):
太空探索技术公司
制造商所在国:
美国
使用方式:
暂无
卫星简介
星链(Starlink)计划是由太空探索技术公司(SpaceX)提出的一个巨型低轨卫星互联网星座项目,计划在2019年至2024年间在太空搭建由约1.2万颗卫星组成的“星链”网络,其中1584颗将部署在地球上空550千米处的近地轨道,并从2020年开始工作。该卫星仍在工作。
2D轨道图
3D轨道图
轨道高度分析图
轨道倾角分析图
轨道综合分析图
查看轨道综合分析图